Time,TemperatureF,DewpointF,PressureIn,WindDirection,WindDirectionDegrees,WindSpeedMPH,WindSpeedGustMPH,Humidity,HourlyPrecipIn,Conditions,Clouds,dailyrainin,SoftwareType,DateUTC
2013-03-13 00:00:00,55.2,0.0,30.15,West,264,0.0,0.0,0,0.00,,,0.00,Weather View 32 v70,2013-03-13 07:00:00,
2013-03-13 00:10:00,55.0,0.0,30.15,West,264,0.0,0.0,0,0.00,,,0.00,Weather View 32 v70,2013-03-13 07:10:00,
2013-03-13 00:20:00,54.9,0.0,30.15,West,264,0.0,0.0,0,0.00,,,0.00,Weather View 32 v70,2013-03-13 07:20:00,
2013-03-13 00:30:00,54.9,0.0,30.15,West,264,0.0,0.0,0,0.00,,,0.00,Weather View 32 v70,2013-03-13 07:30:00,
2013-03-13 00:40:00,54.5,0.0,30.15,West,264,0.0,0.0,0,0.00,,,0.00,Weather View 32 v70,2013-03-13 07:40:00,
2013-03-13 00:50:00,53.9,0.0,30.15,West,264,0.0,0.0,0,0.00,,,0.00,Weather View 32 v70,2013-03-13 07:50:00,
2013-03-13 01:00:00,53.6,0.0,30.15,West,264,0.0,0.0,0,0.00,,,0.00,Weather View 32 v70,2013-03-13 08:00:00,
2013-03-13 01:10:00,53.2,0.0,30.16,West,264,0.0,0.0,0,0.00,,,0.00,Weather View 32 v70,2013-03-13 08:10:00,
2013-03-13 01:20:00,53.1,0.0,30.16,West,264,0.0,0.0,0,0.00,,,0.00,Weather View 32 v70,2013-03-13 08:20:00,
2013-03-13 01:30:00,52.9,0.0,30.16,West,264,0.0,0.0,0,0.00,,,0.00,Weather View 32 v70,2013-03-13 08:30:00,
2013-03-13 01:40:00,52.7,0.0,30.16,West,264,0.0,0.0,0,0.00,,,0.00,Weather View 32 v70,2013-03-13 08:40:00,
2013-03-13 01:50:00,52.1,0.0,30.16,West,264,0.0,0.0,0,0.00,,,0.00,Weather View 32 v70,2013-03-13 08:50:00,
2013-03-13 02:00:00,51.8,0.0,30.16,West,264,0.0,0.0,0,0.00,,,0.00,Weather View 32 v70,2013-03-13 09:00:00,
2013-03-13 02:10:00,51.9,0.0,30.16,West,264,0.0,0.0,0,0.00,,,0.00,Weather View 32 v70,2013-03-13 09:10:00,
2013-03-13 02:20:00,51.9,0.0,30.16,West,264,0.0,0.0,0,0.00,,,0.00,Weather View 32 v70,2013-03-13 09:20:00,
2013-03-13 02:30:00,51.2,0.0,30.16,West,264,0.0,0.0,0,0.00,,,0.00,Weather View 32 v70,2013-03-13 09:30:00,
2013-03-13 02:40:00,51.2,0.0,30.16,West,264,0.0,0.0,0,0.00,,,0.00,Weather View 32 v70,2013-03-13 09:40:00,
2013-03-13 02:50:00,51.4,0.0,30.16,West,264,0.0,0.0,0,0.00,,,0.00,Weather View 32 v70,2013-03-13 09:50:00,
2013-03-13 03:00:00,50.7,0.0,30.16,West,264,0.0,0.0,0,0.00,,,0.00,Weather View 32 v70,2013-03-13 10:00:00,
2013-03-13 03:10:00,50.8,0.0,30.16,West,264,0.0,0.0,0,0.00,,,0.00,Weather View 32 v70,2013-03-13 10:10:00,
2013-03-13 03:20:00,50.7,0.0,30.16,West,264,0.0,0.0,0,0.00,,,0.00,Weather View 32 v70,2013-03-13 10:20:00,
2013-03-13 03:30:00,50.9,0.0,30.17,West,264,0.0,0.0,0,0.00,,,0.00,Weather View 32 v70,2013-03-13 10:30:00,
2013-03-13 03:40:00,50.2,0.0,30.17,West,264,0.0,0.0,0,0.00,,,0.00,Weather View 32 v70,2013-03-13 10:40:00,
2013-03-13 03:50:00,50.3,0.0,30.17,West,264,0.0,0.0,0,0.00,,,0.00,Weather View 32 v70,2013-03-13 10:50:00,
2013-03-13 04:00:00,49.6,0.0,30.17,West,264,0.0,0.0,0,0.00,,,0.00,Weather View 32 v70,2013-03-13 11:00:00,
2013-03-13 04:10:00,49.8,0.0,30.18,West,264,0.0,0.0,0,0.00,,,0.00,Weather View 32 v70,2013-03-13 11:10:00,
2013-03-13 04:20:00,50.0,0.0,30.18,West,264,0.0,0.0,0,0.00,,,0.00,Weather View 32 v70,2013-03-13 11:20:00,
2013-03-13 04:30:00,49.6,0.0,30.18,West,264,0.0,0.0,0,0.00,,,0.00,Weather View 32 v70,2013-03-13 11:30:00,
2013-03-13 04:40:00,49.3,0.0,30.18,West,264,0.0,0.0,0,0.00,,,0.00,Weather View 32 v70,2013-03-13 11:40:00,
2013-03-13 04:50:00,49.5,0.0,30.19,West,264,0.0,0.0,0,0.00,,,0.00,Weather View 32 v70,2013-03-13 11:50:00,
2013-03-13 05:00:00,49.3,0.0,30.19,West,264,0.0,0.0,0,0.00,,,0.00,Weather View 32 v70,2013-03-13 12:00:00,
2013-03-13 05:10:00,49.4,0.0,30.19,West,264,0.0,0.0,0,0.00,,,0.00,Weather View 32 v70,2013-03-13 12:10:00,
2013-03-13 05:20:00,49.5,0.0,30.19,West,264,0.0,0.0,0,0.00,,,0.00,Weather View 32 v70,2013-03-13 12:20:00,
2013-03-13 05:30:00,49.0,0.0,30.19,West,264,0.0,0.0,0,0.00,,,0.00,Weather View 32 v70,2013-03-13 12:30:00,
2013-03-13 05:40:00,49.0,0.0,30.19,West,264,0.0,0.0,0,0.00,,,0.00,Weather View 32 v70,2013-03-13 12:40:00,
2013-03-13 05:50:00,48.8,0.0,30.18,West,264,0.0,0.0,0,0.00,,,0.00,Weather View 32 v70,2013-03-13 12:50:00,
2013-03-13 06:00:00,48.7,0.0,30.18,West,264,0.0,0.0,0,0.00,,,0.00,Weather View 32 v70,2013-03-13 13:00:00,
2013-03-13 06:10:00,48.7,0.0,30.18,West,264,0.0,0.0,0,0.00,,,0.00,Weather View 32 v70,2013-03-13 13:10:00,
2013-03-13 06:20:00,48.6,0.0,30.18,West,264,1.0,2.0,0,0.00,,,0.00,Weather View 32 v70,2013-03-13 13:20:00,
2013-03-13 06:30:00,48.9,0.0,30.19,West,264,0.0,2.0,0,0.00,,,0.00,Weather View 32 v70,2013-03-13 13:30:00,
2013-03-13 06:40:00,48.8,0.0,30.19,West,264,0.0,2.0,0,0.00,,,0.00,Weather View 32 v70,2013-03-13 13:40:00,
2013-03-13 06:50:00,48.2,0.0,30.19,West,264,0.0,2.0,0,0.00,,,0.00,Weather View 32 v70,2013-03-13 13:50:00,
2013-03-13 07:00:00,48.6,0.0,30.20,West,264,0.0,2.0,0,0.00,,,0.00,Weather View 32 v70,2013-03-13 14:00:00,
2013-03-13 07:10:00,48.6,0.0,30.20,West,264,0.0,2.0,0,0.00,,,0.00,Weather View 32 v70,2013-03-13 14:10:00,
2013-03-13 07:20:00,47.7,0.0,30.19,West,264,0.0,2.0,0,0.00,,,0.00,Weather View 32 v70,2013-03-13 14:20:00,
2013-03-13 07:30:00,48.1,0.0,30.19,West,264,0.0,0.0,0,0.00,,,0.00,Weather View 32 v70,2013-03-13 14:30:00,
2013-03-13 07:40:00,47.8,0.0,30.19,West,264,0.0,0.0,0,0.00,,,0.00,Weather View 32 v70,2013-03-13 14:40:00,
2013-03-13 07:50:00,48.6,0.0,30.20,West,264,0.0,0.0,0,0.00,,,0.00,Weather View 32 v70,2013-03-13 14:50:00,
2013-03-13 08:00:00,49.1,0.0,30.20,West,264,0.0,0.0,0,0.00,,,0.00,Weather View 32 v70,2013-03-13 15:00:00,
2013-03-13 08:10:00,50.1,0.0,30.20,West,264,0.0,0.0,0,0.00,,,0.00,Weather View 32 v70,2013-03-13 15:10:00,
2013-03-13 08:20:00,51.0,0.0,30.20,West,264,0.0,0.0,0,0.00,,,0.00,Weather View 32 v70,2013-03-13 15:20:00,
2013-03-13 08:30:00,51.7,0.0,30.20,West,264,0.0,0.0,0,0.00,,,0.00,Weather View 32 v70,2013-03-13 15:30:00,
2013-03-13 08:40:00,53.0,0.0,30.20,West,264,0.0,0.0,0,0.00,,,0.00,Weather View 32 v70,2013-03-13 15:40:00,
2013-03-13 08:50:00,53.9,0.0,30.20,West,264,0.0,0.0,0,0.00,,,0.00,Weather View 32 v70,2013-03-13 15:50:00,
2013-03-13 09:00:00,55.3,0.0,30.20,West,264,0.0,0.0,0,0.00,,,0.00,Weather View 32 v70,2013-03-13 16:00:00,
2013-03-13 09:10:00,56.4,0.0,30.20,West,264,0.0,0.0,0,0.00,,,0.00,Weather View 32 v70,2013-03-13 16:10:00,
2013-03-13 09:20:00,56.9,0.0,30.20,West,264,0.0,0.0,0,0.00,,,0.00,Weather View 32 v70,2013-03-13 16:20:00,
2013-03-13 09:30:00,57.8,0.0,30.20,West,264,0.0,0.0,0,0.00,,,0.00,Weather View 32 v70,2013-03-13 16:30:00,
2013-03-13 09:40:00,58.9,0.0,30.20,East,96,1.0,4.0,0,0.00,,,0.00,Weather View 32 v70,2013-03-13 16:40:00,
2013-03-13 09:50:00,59.4,0.0,30.21,East,98,0.0,4.0,0,0.00,,,0.00,Weather View 32 v70,2013-03-13 16:50:00,
2013-03-13 10:00:00,60.8,0.0,30.21,SSE,165,2.0,4.0,0,0.00,,,0.00,Weather View 32 v70,2013-03-13 17:00:00,
2013-03-13 10:10:00,62.4,0.0,30.21,East,91,2.0,4.0,0,0.00,,,0.00,Weather View 32 v70,2013-03-13 17:10:00,
2013-03-13 10:20:00,63.1,0.0,30.21,East,82,3.0,6.0,0,0.00,,,0.00,Weather View 32 v70,2013-03-13 17:20:00,
2013-03-13 10:30:00,63.7,0.0,30.21,South,170,2.0,7.0,0,0.00,,,0.00,Weather View 32 v70,2013-03-13 17:30:00,
2013-03-13 10:40:00,65.9,0.0,30.21,East,90,4.0,7.0,0,0.00,,,0.00,Weather View 32 v70,2013-03-13 17:40:00,
2013-03-13 10:45:00,65.9,0.0,30.21,East,90,4.0,7.0,0,0.00,,,0.00,Weather View 32 v70,2013-03-13 17:45:00,
2013-03-13 11:00:00,68.6,0.0,30.21,ESE,113,7.0,7.0,0,0.00,,,0.00,Weather View 32 v70,2013-03-13 18:00:00,
2013-03-13 11:10:00,69.4,0.0,30.21,East,101,3.0,8.0,0,0.00,,,0.00,Weather View 32 v70,2013-03-13 18:10:00,
2013-03-13 11:20:00,72.1,0.0,30.21,ENE,62,1.0,8.0,0,0.00,,,0.00,Weather View 32 v70,2013-03-13 18:20:00,
2013-03-13 11:30:00,72.9,0.0,30.20,ENE,76,2.0,10.0,0,0.00,,,0.00,Weather View 32 v70,2013-03-13 18:30:00,
2013-03-13 11:40:00,72.8,0.0,30.20,ENE,75,4.0,10.0,0,0.00,,,0.00,Weather View 32 v70,2013-03-13 18:40:00,
2013-03-13 11:50:00,73.3,0.0,30.20,North,359,3.0,10.0,0,0.00,,,0.00,Weather View 32 v70,2013-03-13 18:50:00,
2013-03-13 12:00:00,73.7,0.0,30.20,East,89,10.0,10.0,0,0.00,,,0.00,Weather View 32 v70,2013-03-13 19:00:00,
2013-03-13 12:10:00,74.6,0.0,30.19,East,87,4.0,13.0,0,0.00,,,0.00,Weather View 32 v70,2013-03-13 19:10:00,
2013-03-13 12:20:00,75.5,0.0,30.19,NNE,32,3.0,13.0,0,0.00,,,0.00,Weather View 32 v70,2013-03-13 19:20:00,
2013-03-13 12:30:00,75.1,0.0,30.19,East,82,8.0,13.0,0,0.00,,,0.00,Weather View 32 v70,2013-03-13 19:30:00,
2013-03-13 12:40:00,74.4,0.0,30.19,NE,52,7.0,13.0,0,0.00,,,0.00,Weather View 32 v70,2013-03-13 19:40:00,
2013-03-13 12:50:00,75.0,0.0,30.18,East,94,3.0,13.0,0,0.00,,,0.00,Weather View 32 v70,2013-03-13 19:50:00,
2013-03-13 13:00:00,75.5,0.0,30.17,ESE,114,3.0,13.0,0,0.00,,,0.00,Weather View 32 v70,2013-03-13 20:00:00,
2013-03-13 13:10:00,76.4,0.0,30.17,ENE,77,7.0,11.0,0,0.00,,,0.00,Weather View 32 v70,2013-03-13 20:10:00,
2013-03-13 13:20:00,76.8,0.0,30.17,East,82,1.0,11.0,0,0.00,,,0.00,Weather View 32 v70,2013-03-13 20:20:00,
2013-03-13 13:30:00,78.3,0.0,30.17,East,82,5.0,11.0,0,0.00,,,0.00,Weather View 32 v70,2013-03-13 20:30:00,
2013-03-13 13:40:00,77.5,0.0,30.16,ENE,62,5.0,12.0,0,0.00,,,0.00,Weather View 32 v70,2013-03-13 20:40:00,
2013-03-13 13:47:00,77.5,0.0,30.16,ENE,62,5.0,12.0,0,0.00,,,0.00,Weather View 32 v70,2013-03-13 20:47:00,
2013-03-13 14:00:00,77.5,0.0,30.16,North,7,3.0,14.0,0,0.00,,,0.00,Weather View 32 v70,2013-03-13 21:00:00,
2013-03-13 14:10:00,78.9,0.0,30.15,SE,129,2.0,14.0,0,0.00,,,0.00,Weather View 32 v70,2013-03-13 21:10:00,
2013-03-13 14:20:00,80.1,0.0,30.15,East,86,9.0,14.0,0,0.00,,,0.00,Weather View 32 v70,2013-03-13 21:20:00,
2013-03-13 14:30:00,79.0,0.0,30.14,NNW,335,1.0,14.0,0,0.00,,,0.00,Weather View 32 v70,2013-03-13 21:30:00,
2013-03-13 14:40:00,79.8,0.0,30.14,ENE,62,3.0,14.0,0,0.00,,,0.00,Weather View 32 v70,2013-03-13 21:40:00,
2013-03-13 14:47:00,79.8,0.0,30.14,ENE,62,3.0,14.0,0,0.00,,,0.00,Weather View 32 v70,2013-03-13 21:47:00,
2013-03-13 15:00:00,79.9,0.0,30.13,East,82,5.0,11.0,0,0.00,,,0.00,Weather View 32 v70,2013-03-13 22:00:00,
2013-03-13 15:10:00,79.8,0.0,30.13,ESE,108,5.0,11.0,0,0.00,,,0.00,Weather View 32 v70,2013-03-13 22:10:00,
2013-03-13 15:20:00,80.4,0.0,30.13,SE,141,2.0,11.0,0,0.00,,,0.00,Weather View 32 v70,2013-03-13 22:20:00,
2013-03-13 15:30:00,80.2,0.0,30.12,East,98,5.0,11.0,0,0.00,,,0.00,Weather View 32 v70,2013-03-13 22:30:00,
2013-03-13 15:40:00,79.9,0.0,30.12,NNW,339,3.0,11.0,0,0.00,,,0.00,Weather View 32 v70,2013-03-13 22:40:00,
2013-03-13 15:48:00,79.9,0.0,30.12,NNW,339,3.0,11.0,0,0.00,,,0.00,Weather View 32 v70,2013-03-13 22:48:00,
2013-03-13 16:00:00,80.2,0.0,30.12,ENE,70,6.0,11.0,0,0.00,,,0.00,Weather View 32 v70,2013-03-13 23:00:00,
2013-03-13 16:10:00,80.3,0.0,30.12,North,8,1.0,11.0,0,0.00,,,0.00,Weather View 32 v70,2013-03-13 23:10:00,
2013-03-13 16:20:00,80.0,0.0,30.12,ESE,104,5.0,11.0,0,0.00,,,0.00,Weather View 32 v70,2013-03-13 23:20:00,
2013-03-13 16:30:00,80.1,0.0,30.11,NNW,328,2.0,11.0,0,0.00,,,0.00,Weather View 32 v70,2013-03-13 23:30:00,
2013-03-13 16:40:00,79.9,0.0,30.11,ENE,77,2.0,11.0,0,0.00,,,0.00,Weather View 32 v70,2013-03-13 23:40:00,
2013-03-13 16:48:00,79.9,0.0,30.11,ENE,77,2.0,11.0,0,0.00,,,0.00,Weather View 32 v70,2013-03-13 23:48:00,
2013-03-13 17:00:00,79.5,0.0,30.10,East,98,6.0,9.0,0,0.00,,,0.00,Weather View 32 v70,2013-03-14 00:00:00,
2013-03-13 17:10:00,79.3,0.0,30.09,East,79,6.0,9.0,0,0.00,,,0.00,Weather View 32 v70,2013-03-14 00:10:00,
2013-03-13 17:20:00,78.4,0.0,30.09,East,93,5.0,11.0,0,0.00,,,0.00,Weather View 32 v70,2013-03-14 00:20:00,
2013-03-13 17:30:00,78.1,0.0,30.09,ESE,107,7.0,11.0,0,0.00,,,0.00,Weather View 32 v70,2013-03-14 00:30:00,
2013-03-13 17:40:00,77.9,0.0,30.09,ENE,62,4.0,11.0,0,0.00,,,0.00,Weather View 32 v70,2013-03-14 00:40:00,
2013-03-13 17:49:00,77.9,0.0,30.09,ENE,62,4.0,11.0,0,0.00,,,0.00,Weather View 32 v70,2013-03-14 00:49:00,
2013-03-13 18:00:00,76.9,0.0,30.08,East,90,4.0,11.0,0,0.00,,,0.00,Weather View 32 v70,2013-03-14 01:00:00,
2013-03-13 18:10:00,76.6,0.0,30.08,East,93,6.0,11.0,0,0.00,,,0.00,Weather View 32 v70,2013-03-14 01:10:00,
2013-03-13 18:20:00,75.9,0.0,30.08,East,97,5.0,11.0,0,0.00,,,0.00,Weather View 32 v70,2013-03-14 01:20:00,
2013-03-13 18:30:00,75.5,0.0,30.08,East,91,2.0,11.0,0,0.00,,,0.00,Weather View 32 v70,2013-03-14 01:30:00,
2013-03-13 18:40:00,75.1,0.0,30.08,ENE,62,0.0,10.0,0,0.00,,,0.00,Weather View 32 v70,2013-03-14 01:40:00,
2013-03-13 18:50:00,74.7,0.0,30.08,NE,56,0.0,10.0,0,0.00,,,0.00,Weather View 32 v70,2013-03-14 01:50:00,
2013-03-13 19:00:00,74.1,0.0,30.08,NE,42,0.0,9.0,0,0.00,,,0.00,Weather View 32 v70,2013-03-14 02:00:00,
2013-03-13 19:10:00,73.0,0.0,30.08,NE,52,0.0,9.0,0,0.00,,,0.00,Weather View 32 v70,2013-03-14 02:10:00,
2013-03-13 19:20:00,71.8,0.0,30.08,East,80,0.0,7.0,0,0.00,,,0.00,Weather View 32 v70,2013-03-14 02:20:00,
2013-03-13 19:30:00,70.0,0.0,30.08,East,80,0.0,7.0,0,0.00,,,0.00,Weather View 32 v70,2013-03-14 02:30:00,
2013-03-13 19:40:00,68.8,0.0,30.08,East,80,0.0,7.0,0,0.00,,,0.00,Weather View 32 v70,2013-03-14 02:40:00,
2013-03-13 19:50:00,68.4,0.0,30.08,East,80,0.0,5.0,0,0.00,,,0.00,Weather View 32 v70,2013-03-14 02:50:00,
2013-03-13 20:00:00,68.1,0.0,30.08,East,80,0.0,3.0,0,0.00,,,0.00,Weather View 32 v70,2013-03-14 03:00:00,
2013-03-13 20:10:00,68.0,0.0,30.09,East,80,0.0,2.0,0,0.00,,,0.00,Weather View 32 v70,2013-03-14 03:10:00,
2013-03-13 20:20:00,66.8,0.0,30.09,East,80,0.0,0.0,0,0.00,,,0.00,Weather View 32 v70,2013-03-14 03:20:00,
2013-03-13 20:30:00,65.8,0.0,30.09,East,80,0.0,0.0,0,0.00,,,0.00,Weather View 32 v70,2013-03-14 03:30:00,
2013-03-13 20:40:00,65.3,0.0,30.09,East,80,0.0,0.0,0,0.00,,,0.00,Weather View 32 v70,2013-03-14 03:40:00,
2013-03-13 20:50:00,64.8,0.0,30.09,East,80,0.0,0.0,0,0.00,,,0.00,Weather View 32 v70,2013-03-14 03:50:00,
2013-03-13 21:10:00,62.9,0.0,30.10,East,80,0.0,0.0,0,0.00,,,0.00,Weather View 32 v70,2013-03-14 04:10:00,
2013-03-13 21:20:00,63.7,0.0,30.11,East,80,0.0,0.0,0,0.00,,,0.00,Weather View 32 v70,2013-03-14 04:20:00,
2013-03-13 21:30:00,62.8,0.0,30.11,East,80,0.0,0.0,0,0.00,,,0.00,Weather View 32 v70,2013-03-14 04:30:00,
2013-03-13 21:40:00,62.7,0.0,30.11,East,80,0.0,0.0,0,0.00,,,0.00,Weather View 32 v70,2013-03-14 04:40:00,
2013-03-13 21:50:00,61.9,0.0,30.12,East,80,0.0,0.0,0,0.00,,,0.00,Weather View 32 v70,2013-03-14 04:50:00,
2013-03-13 22:00:00,63.0,0.0,30.12,East,80,0.0,0.0,0,0.00,,,0.00,Weather View 32 v70,2013-03-14 05:00:00,
2013-03-13 22:10:00,62.5,0.0,30.12,East,80,0.0,0.0,0,0.00,,,0.00,Weather View 32 v70,2013-03-14 05:10:00,
2013-03-13 22:20:00,61.9,0.0,30.12,East,80,0.0,0.0,0,0.00,,,0.00,Weather View 32 v70,2013-03-14 05:20:00,
2013-03-13 22:30:00,62.0,0.0,30.12,East,80,0.0,0.0,0,0.00,,,0.00,Weather View 32 v70,2013-03-14 05:30:00,
2013-03-13 22:40:00,61.7,0.0,30.13,East,80,0.0,0.0,0,0.00,,,0.00,Weather View 32 v70,2013-03-14 05:40:00,
2013-03-13 22:50:00,62.6,0.0,30.13,East,80,0.0,0.0,0,0.00,,,0.00,Weather View 32 v70,2013-03-14 05:50:00,
2013-03-13 23:00:00,62.8,0.0,30.13,WNW,288,0.0,2.0,0,0.00,,,0.00,Weather View 32 v70,2013-03-14 06:00:00,
2013-03-13 23:10:00,63.5,0.0,30.13,West,274,0.0,3.0,0,0.00,,,0.00,Weather View 32 v70,2013-03-14 06:10:00,
2013-03-13 23:20:00,63.7,0.0,30.13,NW,307,1.0,3.0,0,0.00,,,0.00,Weather View 32 v70,2013-03-14 06:20:00,
2013-03-13 23:30:00,63.3,0.0,30.13,West,281,0.0,4.0,0,0.00,,,0.00,Weather View 32 v70,2013-03-14 06:30:00,
2013-03-13 23:40:00,63.5,0.0,30.13,NW,311,2.0,5.0,0,0.00,,,0.00,Weather View 32 v70,2013-03-14 06:40:00,
2013-03-13 23:50:00,63.4,0.0,30.13,West,280,1.0,5.0,0,0.00,,,0.00,Weather View 32 v70,2013-03-14 06:50:00,